owner,sensor,date,latitude,longitude,vertical_datum,mass_concentration_of_oxygen_in_sea_water,qcFlag 
SCCF RECON,ioos:station:SCCF:13:1,2012-12-01T00:00:00Z,26.5255,-82.0032,2.46,6.72,1111122 
SCCF RECON,ioos:station:SCCF:13:1,2012-12-01T01:00:00Z,26.5255,-82.0032,2.45,6.66,1111122 
SCCF RECON,ioos:station:SCCF:13:1,2012-12-01T02:00:00Z,26.5255,-82.0032,2.5,6.7,1111122 
SCCF RECON,ioos:station:SCCF:13:1,2012-12-01T03:00:00Z,26.5255,-82.0032,2.59,6.53,1111122 
SCCF RECON,ioos:station:SCCF:13:1,2012-12-01T04:00:00Z,26.5255,-82.0032,2.67,6.56,1111122 
SCCF RECON,ioos:station:SCCF:13:1,2012-12-01T05:00:00Z,26.5255,-82.0032,2.73,6.81,1111122 
SCCF RECON,ioos:station:SCCF:13:1,2012-12-01T06:00:00Z,26.5255,-82.0032,2.748,6.69,1111122 
SCCF RECON,ioos:station:SCCF:13:1,2012-12-01T07:00:00Z,26.5255,-82.0032,2.754,6.56,1111122 
SCCF RECON,ioos:station:SCCF:13:1,2012-12-01T08:00:00Z,26.5255,-82.0032,2.73,6.58,1111122 
SCCF RECON,ioos:station:SCCF:13:1,2012-12-01T09:00:00Z,26.5255,-82.0032,2.64,6.49,1111122 
SCCF RECON,ioos:station:SCCF:13:1,2012-12-01T10:00:00Z,26.5255,-82.0032,2.52,6.51,1111122 
SCCF RECON,ioos:station:SCCF:13:1,2012-12-01T11:00:00Z,26.5255,-82.0032,2.43,6.9,1111122 
SCCF RECON,ioos:station:SCCF:13:1,2012-12-01T12:00:00Z,26.5255,-82.0032,2.36,6.88,1111122 
SCCF RECON,ioos:station:SCCF:13:1,2012-12-01T13:00:00Z,26.5255,-82.0032,2.27,6.92,1111122 
SCCF RECON,ioos:station:SCCF:13:1,2012-12-01T14:00:00Z,26.5255,-82.0032,2.21,6.96,1111122 
SCCF RECON,ioos:station:SCCF:13:1,2012-12-01T15:00:00Z,26.5255,-82.0032,2.21,7.07,1111122 
SCCF RECON,ioos:station:SCCF:13:1,2012-12-01T16:00:00Z,26.5255,-82.0032,2.33,7.22,1111122 
SCCF RECON,ioos:station:SCCF:13:1,2012-12-01T17:00:00Z,26.5255,-82.0032,2.44,7.19,1111122 
SCCF RECON,ioos:station:SCCF:13:1,2012-12-01T18:00:00Z,26.5255,-82.0032,2.48,7.0,1111122 
SCCF RECON,ioos:station:SCCF:13:1,2012-12-01T19:00:00Z,26.5255,-82.0032,2.519,6.91,1111122 
SCCF RECON,ioos:station:SCCF:13:1,2012-12-01T20:00:00Z,26.5255,-82.0032,2.564,6.89,1111122 
SCCF RECON,ioos:station:SCCF:13:1,2012-12-01T21:00:00Z,26.5255,-82.0032,2.59,6.97,1111122 
SCCF RECON,ioos:station:SCCF:13:1,2012-12-01T22:00:00Z,26.5255,-82.0032,2.582,6.95,1111122 
SCCF RECON,ioos:station:SCCF:13:1,2012-12-01T23:00:00Z,26.5255,-82.0032,2.54,6.79,1111122 
SCCF RECON,ioos:station:SCCF:13:1,2012-12-02T00:00:00Z,26.5255,-82.0032,2.48,6.73,1111122 
SCCF RECON,ioos:station:SCCF:13:1,2012-12-02T01:00:00Z,26.5255,-82.0032,2.46,6.63,1111122 
SCCF RECON,ioos:station:SCCF:13:1,2012-12-02T02:00:00Z,26.5255,-82.0032,2.474,6.6,1111122 
SCCF RECON,ioos:station:SCCF:13:1,2012-12-02T03:00:00Z,26.5255,-82.0032,2.54,6.23,1111122 
SCCF RECON,ioos:station:SCCF:13:1,2012-12-02T04:00:00Z,26.5255,-82.0032,2.61,6.24,1111122 
SCCF RECON,ioos:station:SCCF:13:1,2012-12-02T05:00:00Z,26.5255,-82.0032,2.67,6.65,1111122 
SCCF RECON,ioos:station:SCCF:13:1,2012-12-02T06:00:00Z,26.5255,-82.0032,2.71,6.8,1111122 
SCCF RECON,ioos:station:SCCF:13:1,2012-12-02T07:00:00Z,26.5255,-82.0032,2.73,6.76,1111122 
SCCF RECON,ioos:station:SCCF:13:1,2012-12-02T08:00:00Z,26.5255,-82.0032,2.729,6.62,1111122 
SCCF RECON,ioos:station:SCCF:13:1,2012-12-02T09:00:00Z,26.5255,-82.0032,2.68,6.59,1111122 
SCCF RECON,ioos:station:SCCF:13:1,2012-12-02T10:00:00Z,26.5255,-82.0032,2.6,6.43,1111122 
SCCF RECON,ioos:station:SCCF:13:1,2012-12-02T11:00:00Z,26.5255,-82.0032,2.49,6.51,1111122 
SCCF RECON,ioos:station:SCCF:13:1,2012-12-02T12:00:00Z,26.5255,-82.0032,2.404,6.9,1111122 
SCCF RECON,ioos:station:SCCF:13:1,2012-12-02T13:00:00Z,26.5255,-82.0032,2.32,6.91,1111122 
SCCF RECON,ioos:station:SCCF:13:1,2012-12-02T14:00:00Z,26.5255,-82.0032,2.24,7.02,1111122 
SCCF RECON,ioos:station:SCCF:13:1,2012-12-02T15:00:00Z,26.5255,-82.0032,2.199,7.05,1111122 
SCCF RECON,ioos:station:SCCF:13:1,2012-12-02T16:00:00Z,26.5255,-82.0032,2.225,7.18,1111122 
SCCF RECON,ioos:station:SCCF:13:1,2012-12-02T17:00:00Z,26.5255,-82.0032,2.352,7.29,1111122 
SCCF RECON,ioos:station:SCCF:13:1,2012-12-02T18:00:00Z,26.5255,-82.0032,2.446,7.15,1111122 
SCCF RECON,ioos:station:SCCF:13:1,2012-12-02T19:00:00Z,26.5255,-82.0032,2.486,7.03,1111122 
SCCF RECON,ioos:station:SCCF:13:1,2012-12-02T20:00:00Z,26.5255,-82.0032,2.528,6.85,1111122 
SCCF RECON,ioos:station:SCCF:13:1,2012-12-02T21:00:00Z,26.5255,-82.0032,2.58,7.12,1111122 
SCCF RECON,ioos:station:SCCF:13:1,2012-12-02T22:00:00Z,26.5255,-82.0032,2.59,7.09,1111122 
SCCF RECON,ioos:station:SCCF:13:1,2012-12-02T23:00:00Z,26.5255,-82.0032,2.568,6.94,1111122 
SCCF RECON,ioos:station:SCCF:13:1,2012-12-03T00:00:00Z,26.5255,-82.0032,2.55,6.82,1111122 
SCCF RECON,ioos:station:SCCF:13:1,2012-12-03T01:00:00Z,26.5255,-82.0032,2.51,6.82,1111122 
SCCF RECON,ioos:station:SCCF:13:1,2012-12-03T02:00:00Z,26.5255,-82.0032,2.48,6.84,1111122 
SCCF RECON,ioos:station:SCCF:13:1,2012-12-03T03:00:00Z,26.5255,-82.0032,2.48,6.66,1111122 
SCCF RECON,ioos:station:SCCF:13:1,2012-12-03T04:00:00Z,26.5255,-82.0032,2.54,6.41,1111122 
SCCF RECON,ioos:station:SCCF:13:1,2012-12-03T05:00:00Z,26.5255,-82.0032,2.61,6.41,1111122 
SCCF RECON,ioos:station:SCCF:13:1,2012-12-03T06:00:00Z,26.5255,-82.0032,2.67,6.7,1111122 
SCCF RECON,ioos:station:SCCF:13:1,2012-12-03T07:00:00Z,26.5255,-82.0032,2.68,6.79,1111122 
SCCF RECON,ioos:station:SCCF:13:1,2012-12-03T08:00:00Z,26.5255,-82.0032,2.69,6.74,1111122 
SCCF RECON,ioos:station:SCCF:13:1,2012-12-03T09:00:00Z,26.5255,-82.0032,2.69,6.59,1111122 
SCCF RECON,ioos:station:SCCF:13:1,2012-12-03T10:00:00Z,26.5255,-82.0032,2.64,6.47,1111122 
SCCF RECON,ioos:station:SCCF:13:1,2012-12-03T11:00:00Z,26.5255,-82.0032,2.54,6.44,1111122 
SCCF RECON,ioos:station:SCCF:13:1,2012-12-03T12:00:00Z,26.5255,-82.0032,2.441,6.71,1111122 
SCCF RECON,ioos:station:SCCF:13:1,2012-12-03T13:00:00Z,26.5255,-82.0032,2.363,6.91,1111122 
SCCF RECON,ioos:station:SCCF:13:1,2012-12-03T14:00:00Z,26.5255,-82.0032,2.289,6.91,1111122 
SCCF RECON,ioos:station:SCCF:13:1,2012-12-03T15:00:00Z,26.5255,-82.0032,2.22,7.1,1111122 
SCCF RECON,ioos:station:SCCF:13:1,2012-12-03T16:00:00Z,26.5255,-82.0032,2.2,7.21,1111122 
SCCF RECON,ioos:station:SCCF:13:1,2012-12-03T17:00:00Z,26.5255,-82.0032,2.3,7.31,1111122 
SCCF RECON,ioos:station:SCCF:13:1,2012-12-03T18:00:00Z,26.5255,-82.0032,2.4,7.37,1111122 
SCCF RECON,ioos:station:SCCF:13:1,2012-12-03T19:00:00Z,26.5255,-82.0032,2.47,7.2,1111122 
SCCF RECON,ioos:station:SCCF:13:1,2012-12-03T20:00:00Z,26.5255,-82.0032,2.518,6.86,1111122 
SCCF RECON,ioos:station:SCCF:13:1,2012-12-03T21:00:00Z,26.5255,-82.0032,2.56,6.99,1111122 
SCCF RECON,ioos:station:SCCF:13:1,2012-12-03T22:00:00Z,26.5255,-82.0032,2.599,7.21,1111122 
SCCF RECON,ioos:station:SCCF:13:1,2012-12-03T23:00:00Z,26.5255,-82.0032,2.61,7.0,1111122 
SCCF RECON,ioos:station:SCCF:13:1,2012-12-04T00:00:00Z,26.5255,-82.0032,2.58,7.0,1111122 
SCCF RECON,ioos:station:SCCF:13:1,2012-12-04T01:00:00Z,26.5255,-82.0032,2.53,6.89,1111122 
SCCF RECON,ioos:station:SCCF:13:1,2012-12-04T02:00:00Z,26.5255,-82.0032,2.5,6.92,1111122 
SCCF RECON,ioos:station:SCCF:13:1,2012-12-04T03:00:00Z,26.5255,-82.0032,2.49,6.93,1111122 
SCCF RECON,ioos:station:SCCF:13:1,2012-12-04T04:00:00Z,26.5255,-82.0032,2.499,6.71,1111122 
SCCF RECON,ioos:station:SCCF:13:1,2012-12-04T05:00:00Z,26.5255,-82.0032,2.56,6.49,1111122 
SCCF RECON,ioos:station:SCCF:13:1,2012-12-04T06:00:00Z,26.5255,-82.0032,2.62,6.67,1111122 
SCCF RECON,ioos:station:SCCF:13:1,2012-12-04T07:00:00Z,26.5255,-82.0032,2.66,6.71,1111122 
SCCF RECON,ioos:station:SCCF:13:1,2012-12-04T08:00:00Z,26.5255,-82.0032,2.69,6.8,1111122 
SCCF RECON,ioos:station:SCCF:13:1,2012-12-04T09:00:00Z,26.5255,-82.0032,2.7,6.73,1111122 
SCCF RECON,ioos:station:SCCF:13:1,2012-12-04T10:00:00Z,26.5255,-82.0032,2.69,6.5,1111122 
SCCF RECON,ioos:station:SCCF:13:1,2012-12-04T11:00:00Z,26.5255,-82.0032,2.65,6.44,1111122 
SCCF RECON,ioos:station:SCCF:13:1,2012-12-04T12:00:00Z,26.5255,-82.0032,2.56,6.44,1111122 
SCCF RECON,ioos:station:SCCF:13:1,2012-12-04T13:00:00Z,26.5255,-82.0032,2.46,6.71,1111122 
SCCF RECON,ioos:station:SCCF:13:1,2012-12-04T14:00:00Z,26.5255,-82.0032,2.39,6.96,1111122 
SCCF RECON,ioos:station:SCCF:13:1,2012-12-04T15:00:00Z,26.5255,-82.0032,2.33,7.0,1111122 
SCCF RECON,ioos:station:SCCF:13:1,2012-12-04T16:00:00Z,26.5255,-82.0032,2.27,7.22,1111122 
SCCF RECON,ioos:station:SCCF:13:1,2012-12-04T17:00:00Z,26.5255,-82.0032,2.29,7.23,1111122 
SCCF RECON,ioos:station:SCCF:13:1,2012-12-04T18:00:00Z,26.5255,-82.0032,2.36,7.4,1111122 
SCCF RECON,ioos:station:SCCF:13:1,2012-12-04T19:00:00Z,26.5255,-82.0032,2.437,7.22,1111122 
SCCF RECON,ioos:station:SCCF:13:1,2012-12-04T20:00:00Z,26.5255,-82.0032,2.497,7.04,1111122 
SCCF RECON,ioos:station:SCCF:13:1,2012-12-04T21:00:00Z,26.5255,-82.0032,2.56,6.89,1111122 
SCCF RECON,ioos:station:SCCF:13:1,2012-12-04T22:00:00Z,26.5255,-82.0032,2.61,6.84,1111122 
SCCF RECON,ioos:station:SCCF:13:1,2012-12-04T23:00:00Z,26.5255,-82.0032,2.63,7.03,1111122 
SCCF RECON,ioos:station:SCCF:13:1,2012-12-05T00:00:00Z,26.5255,-82.0032,2.6,7.04,1111122 
SCCF RECON,ioos:station:SCCF:13:1,2012-12-05T01:00:00Z,26.5255,-82.0032,2.56,6.89,1111122 
SCCF RECON,ioos:station:SCCF:13:1,2012-12-05T02:00:00Z,26.5255,-82.0032,2.51,6.87,1111122 
SCCF RECON,ioos:station:SCCF:13:1,2012-12-05T03:00:00Z,26.5255,-82.0032,2.44,6.71,1111122 
SCCF RECON,ioos:station:SCCF:13:1,2012-12-05T04:00:00Z,26.5255,-82.0032,2.401,6.95,1111122 
SCCF RECON,ioos:station:SCCF:13:1,2012-12-05T05:00:00Z,26.5255,-82.0032,2.41,7.08,1111122 
SCCF RECON,ioos:station:SCCF:13:1,2012-12-05T06:00:00Z,26.5255,-82.0032,2.46,6.96,1111122 
SCCF RECON,ioos:station:SCCF:13:1,2012-12-05T07:00:00Z,26.5255,-82.0032,2.5,6.36,1111122 
SCCF RECON,ioos:station:SCCF:13:1,2012-12-05T08:00:00Z,26.5255,-82.0032,2.55,6.53,1111122 
SCCF RECON,ioos:station:SCCF:13:1,2012-12-05T09:00:00Z,26.5255,-82.0032,2.584,6.53,1111122 
SCCF RECON,ioos:station:SCCF:13:1,2012-12-05T10:00:00Z,26.5255,-82.0032,2.59,6.71,1111122 
SCCF RECON,ioos:station:SCCF:13:1,2012-12-05T11:00:00Z,26.5255,-82.0032,2.568,6.66,1111122 
SCCF RECON,ioos:station:SCCF:13:1,2012-12-05T12:00:00Z,26.5255,-82.0032,2.52,6.51,1111122 
SCCF RECON,ioos:station:SCCF:13:1,2012-12-05T13:00:00Z,26.5255,-82.0032,2.441,6.5,1111122 
SCCF RECON,ioos:station:SCCF:13:1,2012-12-05T14:00:00Z,26.5255,-82.0032,2.36,6.62,1111122 
SCCF RECON,ioos:station:SCCF:13:1,2012-12-05T15:00:00Z,26.5255,-82.0032,2.3,6.98,1111122 
SCCF RECON,ioos:station:SCCF:13:1,2012-12-05T16:00:00Z,26.5255,-82.0032,2.24,7.17,1111122 
SCCF RECON,ioos:station:SCCF:13:1,2012-12-05T17:00:00Z,26.5255,-82.0032,2.19,7.53,1111122 
SCCF RECON,ioos:station:SCCF:13:1,2012-12-05T18:00:00Z,26.5255,-82.0032,2.219,7.66,1111122 
SCCF RECON,ioos:station:SCCF:13:1,2012-12-05T19:00:00Z,26.5255,-82.0032,2.33,7.69,1111122 
SCCF RECON,ioos:station:SCCF:13:1,2012-12-05T20:00:00Z,26.5255,-82.0032,2.41,7.1,1111122 
SCCF RECON,ioos:station:SCCF:13:1,2012-12-05T21:00:00Z,26.5255,-82.0032,2.466,6.68,1111122 
SCCF RECON,ioos:station:SCCF:13:1,2012-12-05T22:00:00Z,26.5255,-82.0032,2.518,6.66,1111122 
SCCF RECON,ioos:station:SCCF:13:1,2012-12-05T23:00:00Z,26.5255,-82.0032,2.56,6.87,1111122 
SCCF RECON,ioos:station:SCCF:13:1,2012-12-06T00:00:00Z,26.5255,-82.0032,2.581,6.82,1111122 
SCCF RECON,ioos:station:SCCF:13:1,2012-12-06T01:00:00Z,26.5255,-82.0032,2.551,6.66,1111122 
SCCF RECON,ioos:station:SCCF:13:1,2012-12-06T02:00:00Z,26.5255,-82.0032,2.507,6.51,1111122 
SCCF RECON,ioos:station:SCCF:13:1,2012-12-06T03:00:00Z,26.5255,-82.0032,2.46,6.43,1111122 
SCCF RECON,ioos:station:SCCF:13:1,2012-12-06T04:00:00Z,26.5255,-82.0032,2.41,6.42,1111122 
SCCF RECON,ioos:station:SCCF:13:1,2012-12-06T05:00:00Z,26.5255,-82.0032,2.37,6.66,1111122 
SCCF RECON,ioos:station:SCCF:13:1,2012-12-06T06:00:00Z,26.5255,-82.0032,2.36,6.88,1111122 
SCCF RECON,ioos:station:SCCF:13:1,2012-12-06T07:00:00Z,26.5255,-82.0032,2.369,6.92,1111122 
SCCF RECON,ioos:station:SCCF:13:1,2012-12-06T08:00:00Z,26.5255,-82.0032,2.4,6.97,1111122 
SCCF RECON,ioos:station:SCCF:13:1,2012-12-06T09:00:00Z,26.5255,-82.0032,2.441,6.24,1111122 
SCCF RECON,ioos:station:SCCF:13:1,2012-12-06T10:00:00Z,26.5255,-82.0032,2.48,6.24,1111122 
SCCF RECON,ioos:station:SCCF:13:1,2012-12-06T11:00:00Z,26.5255,-82.0032,2.52,6.26,1111122 
SCCF RECON,ioos:station:SCCF:13:1,2012-12-06T12:00:00Z,26.5255,-82.0032,2.539,6.28,1111122 
SCCF RECON,ioos:station:SCCF:13:1,2012-12-06T13:00:00Z,26.5255,-82.0032,2.5,6.2,1111122 
SCCF RECON,ioos:station:SCCF:13:1,2012-12-06T14:00:00Z,26.5255,-82.0032,2.42,6.17,1111122 
SCCF RECON,ioos:station:SCCF:13:1,2012-12-06T15:00:00Z,26.5255,-82.0032,2.34,6.28,1111122 
SCCF RECON,ioos:station:SCCF:13:1,2012-12-06T16:00:00Z,26.5255,-82.0032,2.28,7.16,1111122 
SCCF RECON,ioos:station:SCCF:13:1,2012-12-06T17:00:00Z,26.5255,-82.0032,2.25,7.24,1111122 
SCCF RECON,ioos:station:SCCF:13:1,2012-12-06T18:00:00Z,26.5255,-82.0032,2.2,7.45,1111122 
SCCF RECON,ioos:station:SCCF:13:1,2012-12-06T19:00:00Z,26.5255,-82.0032,2.255,7.82,1111122 
SCCF RECON,ioos:station:SCCF:13:1,2012-12-06T20:00:00Z,26.5255,-82.0032,2.36,7.54,1111122 
SCCF RECON,ioos:station:SCCF:13:1,2012-12-06T21:00:00Z,26.5255,-82.0032,2.452,6.89,1111122 
SCCF RECON,ioos:station:SCCF:13:1,2012-12-06T22:00:00Z,26.5255,-82.0032,2.53,6.58,1111122 
SCCF RECON,ioos:station:SCCF:13:1,2012-12-06T23:00:00Z,26.5255,-82.0032,2.587,6.84,1111122 
SCCF RECON,ioos:station:SCCF:13:1,2012-12-07T00:00:00Z,26.5255,-82.0032,2.62,7.02,1111122 
SCCF RECON,ioos:station:SCCF:13:1,2012-12-07T01:00:00Z,26.5255,-82.0032,2.62,6.9,1111122 
SCCF RECON,ioos:station:SCCF:13:1,2012-12-07T02:00:00Z,26.5255,-82.0032,2.57,6.7,1111122 
SCCF RECON,ioos:station:SCCF:13:1,2012-12-07T03:00:00Z,26.5255,-82.0032,2.51,6.63,1111122 
SCCF RECON,ioos:station:SCCF:13:1,2012-12-07T04:00:00Z,26.5255,-82.0032,2.44,6.61,1111122 
SCCF RECON,ioos:station:SCCF:13:1,2012-12-07T05:00:00Z,26.5255,-82.0032,2.38,6.63,1111122 
SCCF RECON,ioos:station:SCCF:13:1,2012-12-07T06:00:00Z,26.5255,-82.0032,2.31,6.99,1111122 
SCCF RECON,ioos:station:SCCF:13:1,2012-12-07T07:00:00Z,26.5255,-82.0032,2.29,7.17,1111122 
SCCF RECON,ioos:station:SCCF:13:1,2012-12-07T08:00:00Z,26.5255,-82.0032,2.29,7.19,1111122 
SCCF RECON,ioos:station:SCCF:13:1,2012-12-07T09:00:00Z,26.5255,-82.0032,2.34,7.13,1111122 
SCCF RECON,ioos:station:SCCF:13:1,2012-12-07T10:00:00Z,26.5255,-82.0032,2.42,6.89,1111122 
SCCF RECON,ioos:station:SCCF:13:1,2012-12-07T11:00:00Z,26.5255,-82.0032,2.46,6.38,1111122 
SCCF RECON,ioos:station:SCCF:13:1,2012-12-07T12:00:00Z,26.5255,-82.0032,2.5,6.35,1111122 
SCCF RECON,ioos:station:SCCF:13:1,2012-12-07T13:00:00Z,26.5255,-82.0032,2.52,6.34,1111122 
SCCF RECON,ioos:station:SCCF:13:1,2012-12-07T14:00:00Z,26.5255,-82.0032,2.51,6.29,1111122 
SCCF RECON,ioos:station:SCCF:13:1,2012-12-07T15:00:00Z,26.5255,-82.0032,2.46,6.17,1111122 
SCCF RECON,ioos:station:SCCF:13:1,2012-12-07T16:00:00Z,26.5255,-82.0032,2.389,6.32,1111122 
SCCF RECON,ioos:station:SCCF:13:1,2012-12-07T17:00:00Z,26.5255,-82.0032,2.32,6.73,1111122 
SCCF RECON,ioos:station:SCCF:13:1,2012-12-07T18:00:00Z,26.5255,-82.0032,2.266,7.82,1111122 
SCCF RECON,ioos:station:SCCF:13:1,2012-12-07T19:00:00Z,26.5255,-82.0032,2.24,8.13,1111122 
SCCF RECON,ioos:station:SCCF:13:1,2012-12-07T20:00:00Z,26.5255,-82.0032,2.274,8.62,1111122 
SCCF RECON,ioos:station:SCCF:13:1,2012-12-07T21:00:00Z,26.5255,-82.0032,2.4,8.02,1111122 
SCCF RECON,ioos:station:SCCF:13:1,2012-12-07T22:00:00Z,26.5255,-82.0032,2.49,7.49,1111122 
SCCF RECON,ioos:station:SCCF:13:1,2012-12-07T23:00:00Z,26.5255,-82.0032,2.55,6.75,1111122 
SCCF RECON,ioos:station:SCCF:13:1,2012-12-08T00:00:00Z,26.5255,-82.0032,2.603,6.76,1111122 
SCCF RECON,ioos:station:SCCF:13:1,2012-12-08T01:00:00Z,26.5255,-82.0032,2.64,7.01,1111122 
SCCF RECON,ioos:station:SCCF:13:1,2012-12-08T02:00:00Z,26.5255,-82.0032,2.65,7.05,1111122 
SCCF RECON,ioos:station:SCCF:13:1,2012-12-08T03:00:00Z,26.5255,-82.0032,2.59,6.95,1111122 
SCCF RECON,ioos:station:SCCF:13:1,2012-12-08T04:00:00Z,26.5255,-82.0032,2.5,6.94,1111122 
SCCF RECON,ioos:station:SCCF:13:1,2012-12-08T05:00:00Z,26.5255,-82.0032,2.41,6.75,1111122 
SCCF RECON,ioos:station:SCCF:13:1,2012-12-08T06:00:00Z,26.5255,-82.0032,2.33,7.36,1111122 
SCCF RECON,ioos:station:SCCF:13:1,2012-12-08T07:00:00Z,26.5255,-82.0032,2.26,7.35,1111122 
SCCF RECON,ioos:station:SCCF:13:1,2012-12-08T08:00:00Z,26.5255,-82.0032,2.2,7.48,1111122 
SCCF RECON,ioos:station:SCCF:13:1,2012-12-08T09:00:00Z,26.5255,-82.0032,2.2,7.51,1111122 
SCCF RECON,ioos:station:SCCF:13:1,2012-12-08T10:00:00Z,26.5255,-82.0032,2.29,7.63,1111122 
SCCF RECON,ioos:station:SCCF:13:1,2012-12-08T11:00:00Z,26.5255,-82.0032,2.362,7.21,1111122 
SCCF RECON,ioos:station:SCCF:13:1,2012-12-08T12:00:00Z,26.5255,-82.0032,2.411,6.62,1111122 
SCCF RECON,ioos:station:SCCF:13:1,2012-12-08T13:00:00Z,26.5255,-82.0032,2.47,6.69,1111122 
SCCF RECON,ioos:station:SCCF:13:1,2012-12-08T14:00:00Z,26.5255,-82.0032,2.51,6.6,1111122 
SCCF RECON,ioos:station:SCCF:13:1,2012-12-08T15:00:00Z,26.5255,-82.0032,2.51,6.52,1111122 
SCCF RECON,ioos:station:SCCF:13:1,2012-12-08T16:00:00Z,26.5255,-82.0032,2.482,6.43,1111122 
SCCF RECON,ioos:station:SCCF:13:1,2012-12-08T17:00:00Z,26.5255,-82.0032,2.42,6.23,1111122 
SCCF RECON,ioos:station:SCCF:13:1,2012-12-08T18:00:00Z,26.5255,-82.0032,2.36,6.65,1111122 
SCCF RECON,ioos:station:SCCF:13:1,2012-12-08T19:00:00Z,26.5255,-82.0032,2.31,7.21,1111122 
SCCF RECON,ioos:station:SCCF:13:1,2012-12-08T20:00:00Z,26.5255,-82.0032,2.314,8.11,1111122 
SCCF RECON,ioos:station:SCCF:13:1,2012-12-08T21:00:00Z,26.5255,-82.0032,2.4,7.95,1111122 
SCCF RECON,ioos:station:SCCF:13:1,2012-12-08T22:00:00Z,26.5255,-82.0032,2.474,7.07,1111122 
SCCF RECON,ioos:station:SCCF:13:1,2012-12-08T23:00:00Z,26.5255,-82.0032,2.568,7.21,1111122 
SCCF RECON,ioos:station:SCCF:13:1,2012-12-09T00:00:00Z,26.5255,-82.0032,2.623,6.75,1111122 
SCCF RECON,ioos:station:SCCF:13:1,2012-12-09T01:00:00Z,26.5255,-82.0032,2.677,6.61,1111122 
SCCF RECON,ioos:station:SCCF:13:1,2012-12-09T02:00:00Z,26.5255,-82.0032,2.71,6.92,1111122 
SCCF RECON,ioos:station:SCCF:13:1,2012-12-09T03:00:00Z,26.5255,-82.0032,2.71,6.82,1111122 
SCCF RECON,ioos:station:SCCF:13:1,2012-12-09T04:00:00Z,26.5255,-82.0032,2.63,6.54,1111122 
SCCF RECON,ioos:station:SCCF:13:1,2012-12-09T05:00:00Z,26.5255,-82.0032,2.51,6.53,1111122 
SCCF RECON,ioos:station:SCCF:13:1,2012-12-09T06:00:00Z,26.5255,-82.0032,2.41,6.86,1111122 
SCCF RECON,ioos:station:SCCF:13:1,2012-12-09T07:00:00Z,26.5255,-82.0032,2.321,7.38,1111122 
SCCF RECON,ioos:station:SCCF:13:1,2012-12-09T08:00:00Z,26.5255,-82.0032,2.24,7.44,1111122 
SCCF RECON,ioos:station:SCCF:13:1,2012-12-09T09:00:00Z,26.5255,-82.0032,2.181,7.42,1111122 
SCCF RECON,ioos:station:SCCF:13:1,2012-12-09T10:00:00Z,26.5255,-82.0032,2.202,7.45,1111122 
SCCF RECON,ioos:station:SCCF:13:1,2012-12-09T11:00:00Z,26.5255,-82.0032,2.31,7.58,1111122 
SCCF RECON,ioos:station:SCCF:13:1,2012-12-09T12:00:00Z,26.5255,-82.0032,2.4,7.52,1111122 
SCCF RECON,ioos:station:SCCF:13:1,2012-12-09T13:00:00Z,26.5255,-82.0032,2.47,6.83,1111122 
SCCF RECON,ioos:station:SCCF:13:1,2012-12-09T14:00:00Z,26.5255,-82.0032,2.539,6.62,1111122 
SCCF RECON,ioos:station:SCCF:13:1,2012-12-09T15:00:00Z,26.5255,-82.0032,2.586,6.5,1111122 
SCCF RECON,ioos:station:SCCF:13:1,2012-12-09T16:00:00Z,26.5255,-82.0032,2.59,6.4,1111122 
SCCF RECON,ioos:station:SCCF:13:1,2012-12-09T17:00:00Z,26.5255,-82.0032,2.57,6.45,1111122 
SCCF RECON,ioos:station:SCCF:13:1,2012-12-09T18:00:00Z,26.5255,-82.0032,2.51,6.33,1111122 
SCCF RECON,ioos:station:SCCF:13:1,2012-12-09T19:00:00Z,26.5255,-82.0032,2.44,6.22,1111122 
SCCF RECON,ioos:station:SCCF:13:1,2012-12-09T20:00:00Z,26.5255,-82.0032,2.38,6.56,1111122 
SCCF RECON,ioos:station:SCCF:13:1,2012-12-09T21:00:00Z,26.5255,-82.0032,2.378,7.1,1111122 
SCCF RECON,ioos:station:SCCF:13:1,2012-12-09T22:00:00Z,26.5255,-82.0032,2.45,7.16,1111122 
SCCF RECON,ioos:station:SCCF:13:1,2012-12-09T23:00:00Z,26.5255,-82.0032,2.56,6.35,1111122 
SCCF RECON,ioos:station:SCCF:13:1,2012-12-10T00:00:00Z,26.5255,-82.0032,2.64,6.88,1111122 
SCCF RECON,ioos:station:SCCF:13:1,2012-12-10T01:00:00Z,26.5255,-82.0032,2.672,6.62,1111122 
SCCF RECON,ioos:station:SCCF:13:1,2012-12-10T02:00:00Z,26.5255,-82.0032,2.713,6.47,1111122 
SCCF RECON,ioos:station:SCCF:13:1,2012-12-10T03:00:00Z,26.5255,-82.0032,2.732,6.78,1111122 
SCCF RECON,ioos:station:SCCF:13:1,2012-12-10T04:00:00Z,26.5255,-82.0032,2.7,6.7,1111122 
SCCF RECON,ioos:station:SCCF:13:1,2012-12-10T05:00:00Z,26.5255,-82.0032,2.58,6.76,1111122 
SCCF RECON,ioos:station:SCCF:13:1,2012-12-10T06:00:00Z,26.5255,-82.0032,2.45,6.43,1111122 
SCCF RECON,ioos:station:SCCF:13:1,2012-12-10T07:00:00Z,26.5255,-82.0032,2.35,6.94,1111122 
SCCF RECON,ioos:station:SCCF:13:1,2012-12-10T08:00:00Z,26.5255,-82.0032,2.243,6.9,1111122 
SCCF RECON,ioos:station:SCCF:13:1,2012-12-10T09:00:00Z,26.5255,-82.0032,2.148,7.0,1111122 
SCCF RECON,ioos:station:SCCF:13:1,2012-12-10T10:00:00Z,26.5255,-82.0032,2.07,6.98,1111122 
SCCF RECON,ioos:station:SCCF:13:1,2012-12-10T11:00:00Z,26.5255,-82.0032,2.07,7.19,1111122 
SCCF RECON,ioos:station:SCCF:13:1,2012-12-10T12:00:00Z,26.5255,-82.0032,2.18,7.35,1111122 
SCCF RECON,ioos:station:SCCF:13:1,2012-12-10T13:00:00Z,26.5255,-82.0032,2.3,7.51,1111122 
SCCF RECON,ioos:station:SCCF:13:1,2012-12-10T14:00:00Z,26.5255,-82.0032,2.37,6.5,1111122 
SCCF RECON,ioos:station:SCCF:13:1,2012-12-10T15:00:00Z,26.5255,-82.0032,2.433,6.74,1111122 
SCCF RECON,ioos:station:SCCF:13:1,2012-12-10T16:00:00Z,26.5255,-82.0032,2.48,6.39,1111122 
SCCF RECON,ioos:station:SCCF:13:1,2012-12-10T17:00:00Z,26.5255,-82.0032,2.498,6.24,1111122 
SCCF RECON,ioos:station:SCCF:13:1,2012-12-10T18:00:00Z,26.5255,-82.0032,2.5,6.51,1111122 
SCCF RECON,ioos:station:SCCF:13:1,2012-12-10T19:00:00Z,26.5255,-82.0032,2.464,6.58,1111122 
SCCF RECON,ioos:station:SCCF:13:1,2012-12-10T20:00:00Z,26.5255,-82.0032,2.434,6.83,1111122 
SCCF RECON,ioos:station:SCCF:13:1,2012-12-10T21:00:00Z,26.5255,-82.0032,2.43,6.31,1111122 
SCCF RECON,ioos:station:SCCF:13:1,2012-12-10T22:00:00Z,26.5255,-82.0032,2.43,6.47,1111122 
SCCF RECON,ioos:station:SCCF:13:1,2012-12-10T23:00:00Z,26.5255,-82.0032,2.51,6.26,1111122 
SCCF RECON,ioos:station:SCCF:13:1,2012-12-11T00:00:00Z,26.5255,-82.0032,2.63,6.85,1111122 
SCCF RECON,ioos:station:SCCF:13:1,2012-12-11T01:00:00Z,26.5255,-82.0032,2.7,6.63,1111122 
SCCF RECON,ioos:station:SCCF:13:1,2012-12-11T02:00:00Z,26.5255,-82.0032,2.75,6.55,1111122 
SCCF RECON,ioos:station:SCCF:13:1,2012-12-11T03:00:00Z,26.5255,-82.0032,2.77,6.39,1111122 
SCCF RECON,ioos:station:SCCF:13:1,2012-12-11T04:00:00Z,26.5255,-82.0032,2.8,6.35,1111122 
SCCF RECON,ioos:station:SCCF:13:1,2012-12-11T05:00:00Z,26.5255,-82.0032,2.775,6.29,1111122 
SCCF RECON,ioos:station:SCCF:13:1,2012-12-11T06:00:00Z,26.5255,-82.0032,2.659,6.19,1111122 
SCCF RECON,ioos:station:SCCF:13:1,2012-12-11T07:00:00Z,26.5255,-82.0032,2.51,6.05,1111122 
SCCF RECON,ioos:station:SCCF:13:1,2012-12-11T08:00:00Z,26.5255,-82.0032,2.38,6.01,1111122 
SCCF RECON,ioos:station:SCCF:13:1,2012-12-11T09:00:00Z,26.5255,-82.0032,2.282,6.09,1111122 
SCCF RECON,ioos:station:SCCF:13:1,2012-12-11T10:00:00Z,26.5255,-82.0032,2.18,6.17,1111122 
SCCF RECON,ioos:station:SCCF:13:1,2012-12-11T11:00:00Z,26.5255,-82.0032,2.11,6.19,1111122 
SCCF RECON,ioos:station:SCCF:13:1,2012-12-11T12:00:00Z,26.5255,-82.0032,2.099,6.18,1111122 
SCCF RECON,ioos:station:SCCF:13:1,2012-12-11T13:00:00Z,26.5255,-82.0032,2.22,6.19,1111122 
SCCF RECON,ioos:station:SCCF:13:1,2012-12-11T14:00:00Z,26.5255,-82.0032,2.33,6.28,1111122 
SCCF RECON,ioos:station:SCCF:13:1,2012-12-11T15:00:00Z,26.5255,-82.0032,2.426,5.82,1111122 
SCCF RECON,ioos:station:SCCF:13:1,2012-12-11T16:00:00Z,26.5255,-82.0032,2.484,6.08,1111122 
SCCF RECON,ioos:station:SCCF:13:1,2012-12-11T17:00:00Z,26.5255,-82.0032,2.55,5.98,1111122 
SCCF RECON,ioos:station:SCCF:13:1,2012-12-11T18:00:00Z,26.5255,-82.0032,2.57,6.01,1111122 
SCCF RECON,ioos:station:SCCF:13:1,2012-12-11T19:00:00Z,26.5255,-82.0032,2.54,6.17,1111122 
SCCF RECON,ioos:station:SCCF:13:1,2012-12-11T20:00:00Z,26.5255,-82.0032,2.48,6.17,1111122 
SCCF RECON,ioos:station:SCCF:13:1,2012-12-11T21:00:00Z,26.5255,-82.0032,2.43,6.03,1111122 